Terminal Aerodrome Forecast
Issued by NWS Topeka, KS

Home | Current Version | Previous Version | Graphics & Text | Print | Product List | Glossary On
Versions: 1 2 3 4 5 6 7 8 9 10 11 12 13 14 15
000
FTUS43 KTOP 140100 AAA
TAFTOP
TAF AMD
KTOP 140135Z 1402/1424 35020G30KT 3SM -RASN OVC012
     FM141100 34018G25KT 4SM -SN OVC012
     FM141600 34015G22KT P6SM BKN035=

USA.gov is the U.S. government's official web portal to all federal, state and local government web resources and services.